Regional Weather Roundup
Issued by NWS

Home | Current Version | Previous Version | Text Only | Print | Product List | Glossary Off
Versions: 1 2 3 4 5 6 7 8 9 10 11 12 13 14 15 16 17 18 19 20 21 22 23 24 25 26 27 28 29 30 31 32 33 34 35 36 37 38 39 40 41 42 43 44 45 46 47 48 49 50

000
ASUS45 KABQ 191610
RWRNM
NEW MEXICO REGIONAL WEATHER ROUNDUP
NATIONAL WEATHER SERVICE ALBUQUERQUE NM
1000 AM MDT THU OCT 19 2017

NOTE: "FAIR" MEANS FEW OR NO CLOUDS BELOW 12,000 FEET AGL WITH NO
       SIGNIFICANT WEATHER OR OBSTRUCTIONS TO VISION.

      THIS PRODUCT IS RELEASED AS TWO VERSIONS.  ONE VERSION NEAR
      THE TOP OF THE HOUR CONTAINING PRELIMINARY DATA FROM ALBUQUERQUE
      AND OTHER STATIONS.  A FINAL VERSION WITH ADDITIONAL DATA IS
      ISSUED ABOUT 10 MINUTES AFTER THE HOUR.

NMZ501-503-504-510>518-191700-
NORTHWEST PLATEAU/NORTHCENTRAL MOUNTAINS

CITY           SKY/WX    TMP DP  RH WIND       PRES   REMARKS
FARMINGTON     PTSUNNY   52  26  36 E12       30.15R
LOS ALAMOS     FAIR      53  26  35 CALM      30.25F
SANTA FE       FAIR      54  23  30 N15       30.21S
TAOS           FAIR      49  21  33 VRB5      30.28F
ANGEL FIRE     FAIR      40  25  56 CALM      30.33F

$$
NMZ402-403-502-505>509-191700-
WESTCENTRAL MOUNTAINS/SOUTHWEST MOUNTAINS

CITY           SKY/WX    TMP DP  RH WIND       PRES   REMARKS
GALLUP         CLOUDY    53  28  38 E3        30.20S
GRANTS         PTSUNNY   51  30  45 S9        30.24S
SILVER CITY    FAIR      66  45  45 SE7       30.16S

$$
NMZ407-409-411-412-191700-
SOUTHERN DESERTS

CITY           SKY/WX    TMP DP  RH WIND       PRES   REMARKS
DEMING         FAIR      67  51  56 VRB3      30.11S
LAS CRUCES     FAIR      69  53  56 S7        30.13S
HOLLOMAN AFB   FAIR      68  56  64 S3        30.13R
ALAMOGORDO     FAIR      68  48  49 S3        30.13R
T OR C         FAIR      67  48  50 CALM      30.13S

$$
NMZ519>523-191700-
CENTRAL VALLEYS/CENTRAL HIGHLANDS

CITY           SKY/WX    TMP DP  RH WIND       PRES   REMARKS
ALBUQUERQUE    PTSUNNY   59  31  34 NW3       30.17S
DOUBLE EAGLE   PTSUNNY   61  32  33 E7        30.19S
MORIARTY ARPT  FAIR      57  28  33 CALM      30.22F
CLINES CORNERS NOT AVBL
BELEN          FAIR      59  29  32 CALM      30.17S
SOCORRO        FAIR      59  30  33 N5        30.16R

$$
NMZ524>526-539-540-191700-
SOUTHCENTRAL MOUNTAINS

CITY           SKY/WX    TMP DP  RH WIND       PRES   REMARKS
RUIDOSO        PTSUNNY   61  39  44 CALM      30.25S

$$
NMZ527>531-191700-
NORTHEAST HIGHLANDS/NORTHEAST PLAINS

CITY           SKY/WX    TMP DP  RH WIND       PRES   REMARKS
LAS VEGAS      FAIR      57  29  34 N7        30.22F
RATON          FAIR      57  32  38 E6        30.18F
CLAYTON        FAIR      67  41  38 E7        30.12S

$$
NMZ532>537-191700-
EASTCENTRAL PLAINS

CITY           SKY/WX    TMP DP  RH WIND       PRES   REMARKS
SANTA ROSA     FAIR      58  33  38 CALM      30.13F
CANNON AFB     SUNNY     58  56  93 S8        30.14R
CLOVIS AIRPORT   N/A     60  48  64 S10       30.14R

$$
NMZ028-029-538-191700-
SOUTHEAST PLAINS

CITY           SKY/WX    TMP DP  RH WIND       PRES   REMARKS
ROSWELL        CLOUDY    60  44  55 NW12      30.10F
ARTESIA        FAIR      61  50  67 N10       30.09F
CARLSBAD       CLOUDY    64  61  90 SW8       30.08S
HOBBS          PTSUNNY   61  46  59 S9        30.13R


$$




USA.gov is the U.S. government's official web portal to all federal, state and local government web resources and services.